Location: Newark
(18.8808°N, 99.0693°W)
Time: 17:17:16
(UTC+00:00)

OTV 5 (USA 277) - Visible Passes

Search period start: 18 July 2019 00:00
Search period end: 28 July 2019 00:00
Orbit: 299 x 335 km, 54.5° (Epoch: 13 July)

Date Brightness Start Highest point End Pass type
(mag) Time Alt. Az. Time Alt. Az. Time Alt. Az.
18 Jul ? 02:45:24 10° W 02:46:37 12° WSW 02:47:24 11° SW visible
20 Jul ? 01:39:15 10° WNW 01:41:35 24° WSW 01:43:55 10° S visible
27 Jul ? 11:41:08 10° S 11:43:23 26° ESE 11:45:40 10° ENE visible
